User: anonymous   Login
Location: Fort Wayne
(41.1310°N, 85.1290°W)
Time: 01:32:49
(UTC-04:00)
Language:

Cosmos 2219 Rocket - Orbit

View from above orbital plane
View from above orbital plane
View from above satellite
View from above satellite

Ground track
Ground track

The orbit data is extracted from the following two-line orbital elements,

1 22220U 92076B   15145.57618353  .00000233  00000-0  14114-3 0  9998
2 22220 071.0001 205.4933 0013738 332.4706 131.8328 14.16368073164064
Epoch (UTC): 25 May 2015 13:49:42
Eccentricity: 0.0013738
inclination: 71.0001°
perigee height: 828 km
apogee height: 847 km
right ascension of ascending node: 205.4933°
argument of perigee: 332.4706°
revolutions per day: 14.16368073
mean anomaly at epoch: 131.8328°
orbit number at epoch: 16406

The dashed part of the orbit path shows where the satellite is in the earth's shadow,  

DLR